Regional Weather Roundup
Issued by NWS

Home | Current Version | Previous Version | Text Only | Print | Product List | Glossary Off
Versions: 1 2 3 4 5 6 7 8 9 10 11 12 13 14 15 16 17 18 19 20 21 22 23 24 25 26 27 28 29 30 31 32 33 34 35 36 37 38 39 40 41 42 43 44 45 46 47 48 49 50

000
ASUS43 KDTX 270401
RWRMI
MICHIGAN HOURLY REGIONAL WEATHER ROUNDUP
NATIONAL WEATHER SERVICE DETROIT/PONTIAC MI
1100 PM EST FRI DEC 26 2014

NOTE: "FAIR" INDICATES FEW OR NO CLOUDS BELOW 12,000 FEET WITH NO
SIGNIFICANT WEATHER AND/OR OBSTRUCTION TO VISIBILITY.

MIZ047>049-052>055-059>063-066>070-074>076-081>083-270500-
SOUTHEAST LOWER MICHIGAN

CITY           SKY/WX    TMP DP  RH WIND       PRES   REMARKS
ADRIAN         CLOUDY    42  39  89 SW7       30.12R
ALMA           CLOUDY    38  37  94 S3        30.06F
ANN ARBOR      CLOUDY    39  37  92 SW3       30.11R
BAD AXE        CLOUDY    29  29 100 CALM      30.09S FOG
CARO           CLOUDY    38  36  92 SW3       30.08F
DETROIT CITY   MOCLDY    42  36  79 SW6       30.12R
DETROIT        MOCLDY    38  36  92 S5        30.12R WCI  34
FLINT          CLOUDY    44  38  79 SW6       30.10S
GROSSE ILE     PTCLDY    39  36  87 S9        30.11S WCI  33
HILLSDALE      CLOUDY    44  41  91 SW7       30.09R
HOWELL         CLOUDY    41  39  91 S5        30.09S

CITY           SKY/WX    TMP DP  RH WIND       PRES   REMARKS
JACKSON        CLOUDY    44  39  82 S5        30.09S
LAMBERTVILLE   MOCLDY    41  36  81 S6        30.13R
LANSING        CLOUDY    42  37  82 S6        30.08F
LAPEER         CLOUDY    39  37  93 SW3       30.10F
MASON          CLOUDY    40  37  89 S5        30.08F
MONROE         MOCLDY    39  36  87 S5        30.10F
MT. CLEMENS    MOCLDY    35  35 100 S2        30.10S
PONTIAC        CLOUDY    40  38  93 S5        30.10S
PORT HOPE        N/A     32  30  92 CALM      30.07F
PORT HURON     PTCLDY    36  34  93 S6        30.12S WCI  31
TRI CITIES     CLOUDY    41  36  82 S6        30.08S
TROY           CLOUDY    42  38  85 SW3       30.13R
SAGINAW HB     CLOUDY    41  39  93 S7        30.07F
$$
MIZ043>046-050>051-056>058-064>065-071>073-077>080-270500-
SOUTHWEST LOWER MICHIGAN

CITY           SKY/WX    TMP DP  RH WIND       PRES   REMARKS
BATTLE CREEK   CLOUDY    45  40  82 S7        30.09R
BENTON HARBOR  CLOUDY    47  41  80 SW12      30.07R
BIG RAPIDS     CLOUDY    33  33 100 CALM      30.02F FOG
COLDWATER      CLOUDY    43  39  85 S3        30.09R
FREMONT        MOCLDY    34  34  99 CALM      30.03S
HOLLAND        CLOUDY    45  39  79 S7        30.06R
GRAND RAPIDS   CLOUDY    44  38  79 S8        30.06S
IONIA          CLOUDY    43  39  86 S9        30.05F
KALAMAZOO      CLOUDY    46  40  79 SW7       30.09R
MARSHALL       CLOUDY    43  39  85 SW6       30.09R
MOUNT PLEASANT CLOUDY    33  32  97 CALM      30.04F
MUSKEGON       MOCLDY    38  36  92 CALM      30.04S
SOUTH HAVEN    CLOUDY    48  41  76 S6        30.06R
$$
MIZ016>042-270500-
NORTHERN LOWER MICHIGAN

CITY           SKY/WX    TMP DP  RH WIND       PRES   REMARKS
ALPENA         CLOUDY    38  33  82 S6        30.06F WCI  33
BEAVER ISLAND  CLOUDY    34  34 100 E3        30.04S FOG
BELLAIRE       CLOUDY    39  35  83 CALM      30.04F
CADILLAC       MOCLDY    30  29  98 CALM      30.02S FOG
CHARLEVOIX     CLOUDY    38  36  92 CALM      30.06F
FRANKFORT      CLOUDY    37  36  94 CALM      30.04S
GAYLORD        CLOUDY    35  34  96 S5        30.03S WCI  31
GRAYLING       CLOUDY    36  35  98 SE3       30.04F
HARBOR SPRINGS CLOUDY    35  34  94 CALM      30.04S
HOUGHTON LAKE  CLOUDY    33  32  96 CALM      30.04S FOG
MANISTEE       PTCLDY    30  27  86 CALM      30.03F
OSCODA         CLOUDY    34  33  96 CALM      30.08R
PELLSTON       CLOUDY    35  33  92 CALM      30.04S
ROGERS CITY    CLOUDY    37  35  94 S6        30.06F WCI  32
TRAVERSE CITY  CLOUDY    40  35  83 CALM      30.03F
$$
MIZ007>008-015-270500-
EASTERN UPPER MICHIGAN

CITY           SKY/WX    TMP DP  RH WIND       PRES   REMARKS
KINROSS        CLOUDY    34  34 100 CALM      30.04S
MACKINAC ISLAN CLOUDY    36  36 100 SE3       30.03S FOG
NEWBERRY       FOG       32  32 100 N3        30.04R VSB 3/4
S. S. MARIE    LGT SNOW  34  32  92 CALM      30.03F FOG
MUNISING         N/A     35  32  88 CALM      30.04S
$$
MIZ004>006-011>014-085-270500-
CENTRAL UPPER MICHIGAN

CITY           SKY/WX    TMP DP  RH WIND       PRES   REMARKS
MANISTIQUE     CLOUDY    33  33 100 CALM      30.04S FOG
ESCANABA       CLOUDY    34  30  86 CALM      30.04S
MENOMINEE      CLOUDY    34  30  86 NE7       30.03F WCI  28
SAWYER-GWINN   CLOUDY    32  31  96 CALM      30.03R
$$
MIZ001>003-009>011-084-270500-
WESTERN UPPER MICHIGAN

CITY           SKY/WX    TMP DP  RH WIND       PRES   REMARKS
IRON MOUNTAIN  CLOUDY    32  30  92 N3        30.02S FOG
HOUGHTON       CLOUDY    31  27  85 N3        30.05R
COPPER HARBOR    N/A     35  27  72 NE12      30.06S WCI  27
IRONWOOD       CLOUDY    28  27  93 CALM      30.03F
$$

ABBREVIATIONS USED IN REMARKS
   TC - TEMPERATURE IN CELSIUS
  WCI - WIND CHILL INDEX
   HX - HEAT INDEX
  VSB - VISIBILITY




USA.gov is the U.S. government's official web portal to all federal, state and local government web resources and services.